Flag for Brazil Weather past 2 weeks in Belo Horizonte, Minas Gerais, Brazil

Now
63 °F

Clear.


Feels Like: 63 °F
Forecast: 64 / 79 °F
Wind: 8 mph from Southeast

Location: Belo Horizonte Airport

Current Time: Aug 29, 2015 at 3:23:05 AM

Latest Report: Aug 29, 2015 at 2:00 AM


Visibility: 10 mi

Pressure: 30.18 "Hg (27.27 "Hg at 860m altitude)

Humidity: 77%

Dew point: 55 °F

Location of Belo HorizonteLocation

Historic Weather in Belo Horizonte — Graph

°F

Belo Horizonte temperature yesterday

Maximum temperature yesterday: 81 °F (at 2:00 PM)
Minimum temperature yesterday: 63 °F (at 6:00 AM)
Average temperature yesterday: 70 °F

Past Weeks' High & Low Weather Summary

 TemperatureHumidityPressure
High86 °F (Aug 20, 2:00 PM)100% (Aug 19, 3:00 AM)30.33 "Hg (Aug 19, 3:00 AM)
Low55 °F (Aug 14, 3:00 AM)29% (Aug 20, 2:00 PM)29.98 "Hg (Aug 23, 3:00 PM)
Average69 °F65%30.14 "Hg
* Reported Aug 14 2:00 AM — Aug 29 2:00 AM, Belo Horizonte, Weather by CustomWeather, © 2015

Note: Actual official high and low records may vary slightly from our data, if they occured in-between our weather recording intervals... More about our weather records

Advertising

Belo Horizonte weather history for previous 24 hours

 ConditionsComfort  
Time TempWeatherWind HumidityBarometerVisibility
2:00 AM
Sat, Aug 29
63 °FClear.8 mph77%30.18 "Hg10 mi
1:00 AM64 °FClear.8 mph73%30.21 "Hg10 mi
12:00 AM66 °FClear.12 mph68%30.21 "Hg10 mi
11:00 PM
Fri, Aug 28
66 °FClear.15 mph68%30.21 "Hg10 mi
10:00 PM66 °FClear.15 mph68%30.21 "Hg10 mi
9:00 PM66 °FClear.12 mph73%30.21 "Hg10 mi
8:00 PM66 °FClear.14 mph78%30.21 "Hg10 mi
7:00 PM68 °FClear.16 mph73%30.18 "Hg10 mi
6:00 PM70 °FClear.17 mph69%30.15 "Hg10 mi
5:00 PM72 °FSunny.14 mph65%30.15 "Hg10 mi
4:00 PM72 °FPassing clouds.21 mph69%30.12 "HgN/A
3:00 PM77 °FScattered clouds.16 mph57%30.12 "HgN/A
2:00 PM81 °FScattered clouds.12 mph51%30.12 "HgN/A
1:00 PM79 °FScattered clouds.10 mph54%30.15 "HgN/A
12:00 PM79 °FScattered clouds.8 mph54%30.15 "HgN/A
11:00 AM79 °FPassing clouds.6 mph54%30.15 "HgN/A
10:00 AM75 °FSunny.5 mph61%30.18 "Hg10 mi
9:00 AM72 °FSunny.3 mph69%30.18 "Hg10 mi
8:00 AM68 °FSunny.2 mph78%30.15 "Hg10 mi
7:00 AM63 °FSunny.2 mph88%30.15 "Hg10 mi
6:00 AM63 °FClear.3 mph88%30.09 "Hg10 mi
5:00 AM64 °FClear.2 mph83%30.09 "Hg10 mi
4:00 AM64 °FClear.9 mph83%30.09 "Hg10 mi
3:00 AM66 °FClear.12 mph78%30.12 "Hg10 mi
Weather by CustomWeather, © 2015

See weather overviewHow to use our weather pages